AAL31 KLAX-PHNL

Flight info

Callsign AAL31
Flight time N/A
Altitude 34000
Route SUMMR2 DINTY DUETS R576 DENNS INOYI1
Aircraft A21N/M-SDE2E3FGHIRWXY/LB1

Departure

Time N/A
Airport Los Angeles International Airport (KLAX)

Arrival

Time 2026-05-04 01:15
Airport Daniel K. Inouye International Airport (PHNL)
Time Latitude Longitude Altitude Speed Heading
2026-05-04 00:36 21.89646 -156.13861 34088 ft 444 kts 260°
2026-05-04 00:36 21.88264 -156.20305 34088 ft 444 kts 260°
2026-05-04 00:37 21.86877 -156.26756 34085 ft 444 kts 259°
2026-05-04 00:37 21.85486 -156.33228 34087 ft 445 kts 260°
2026-05-04 00:38 21.84085 -156.39723 34011 ft 446 kts 260°
2026-05-04 00:38 21.83389 -156.42952 33619 ft 446 kts 260°
2026-05-04 00:38 21.82688 -156.46191 33044 ft 445 kts 260°
2026-05-04 00:38 21.81997 -156.49391 32368 ft 445 kts 260°
2026-05-04 00:39 21.81293 -156.52647 31719 ft 444 kts 260°
2026-05-04 00:39 21.80600 -156.55859 30939 ft 446 kts 259°
2026-05-04 00:39 21.79897 -156.59103 30176 ft 448 kts 259°
2026-05-04 00:39 21.79193 -156.62350 29414 ft 449 kts 259°
2026-05-04 00:40 21.78485 -156.65616 28611 ft 451 kts 259°
2026-05-04 00:40 21.77774 -156.68890 27782 ft 454 kts 258°
2026-05-04 00:40 21.77051 -156.72211 26944 ft 456 kts 258°
2026-05-04 00:40 21.76331 -156.75516 26107 ft 458 kts 258°
2026-05-04 00:41 21.75605 -156.78850 25263 ft 460 kts 258°
2026-05-04 00:41 21.74882 -156.82156 24694 ft 456 kts 258°
2026-05-04 00:41 21.74158 -156.85466 24126 ft 452 kts 257°
2026-05-04 00:41 21.73448 -156.88713 23562 ft 448 kts 257°
2026-05-04 00:42 21.72740 -156.91948 22998 ft 445 kts 257°
2026-05-04 00:42 21.72029 -156.95198 22436 ft 442 kts 256°
2026-05-04 00:42 21.71332 -156.98360 21909 ft 439 kts 257°
2026-05-04 00:42 21.70626 -157.01558 21396 ft 434 kts 257°
2026-05-04 00:43 21.69943 -157.04657 21184 ft 432 kts 257°
2026-05-04 00:43 21.69251 -157.07793 20973 ft 430 kts 257°
2026-05-04 00:43 21.68578 -157.10846 20757 ft 429 kts 257°
2026-05-04 00:43 21.67892 -157.13953 20517 ft 427 kts 257°
2026-05-04 00:44 21.67160 -157.16988 20225 ft 421 kts 252°
2026-05-04 00:44 21.65908 -157.19797 19894 ft 412 kts 239°
2026-05-04 00:44 21.64191 -157.22238 19533 ft 404 kts 231°
2026-05-04 00:44 21.62416 -157.24499 19177 ft 397 kts 231°
2026-05-04 00:45 21.60630 -157.26749 18767 ft 391 kts 231°
2026-05-04 00:45 21.58888 -157.28954 18370 ft 385 kts 231°
2026-05-04 00:45 21.57181 -157.31123 17981 ft 380 kts 231°
2026-05-04 00:45 21.55480 -157.33295 17589 ft 374 kts 231°
2026-05-04 00:46 21.53835 -157.35397 17216 ft 368 kts 231°
2026-05-04 00:46 21.52198 -157.37495 16846 ft 363 kts 231°
2026-05-04 00:46 21.50594 -157.39551 16484 ft 358 kts 231°
2026-05-04 00:46 21.49008 -157.41580 16131 ft 352 kts 231°
2026-05-04 00:47 21.47443 -157.43585 15780 ft 347 kts 231°
2026-05-04 00:47 21.45894 -157.45564 15425 ft 343 kts 231°
2026-05-04 00:47 21.44373 -157.47510 15029 ft 339 kts 231°
2026-05-04 00:47 21.42887 -157.49414 14627 ft 331 kts 232°
2026-05-04 00:48 21.41592 -157.51433 14164 ft 321 kts 242°
2026-05-04 00:48 21.40634 -157.53557 13690 ft 316 kts 248°
2026-05-04 00:48 21.39808 -157.55713 13228 ft 316 kts 249°
2026-05-04 00:48 21.38985 -157.57916 12787 ft 316 kts 249°
2026-05-04 00:49 21.38171 -157.60088 12326 ft 313 kts 249°
2026-05-04 00:49 21.37358 -157.62239 11966 ft 311 kts 249°
2026-05-04 00:49 21.36554 -157.64359 11597 ft 308 kts 249°
2026-05-04 00:49 21.35744 -157.66487 11221 ft 306 kts 249°
2026-05-04 00:50 21.34935 -157.68613 10847 ft 305 kts 248°
2026-05-04 00:50 21.34134 -157.70708 10478 ft 303 kts 248°
2026-05-04 00:50 21.33342 -157.72778 10112 ft 301 kts 248°
2026-05-04 00:50 21.32553 -157.74846 9744 ft 300 kts 248°
2026-05-04 00:51 21.31760 -157.76912 9369 ft 299 kts 248°
2026-05-04 00:51 21.30977 -157.78949 8999 ft 297 kts 248°
2026-05-04 00:51 21.30191 -157.80994 8636 ft 296 kts 248°
2026-05-04 00:51 21.29416 -157.83008 8374 ft 290 kts 248°
2026-05-04 00:52 21.28640 -157.84970 8266 ft 278 kts 244°
2026-05-04 00:52 21.27624 -157.86682 8078 ft 271 kts 230°
2026-05-04 00:52 21.26367 -157.88193 7753 ft 270 kts 226°
2026-05-04 00:52 21.25089 -157.89627 7433 ft 268 kts 226°
2026-05-04 00:53 21.23797 -157.91074 7117 ft 266 kts 226°
2026-05-04 00:53 21.22551 -157.92485 6979 ft 256 kts 227°
2026-05-04 00:53 21.21434 -157.93915 6965 ft 244 kts 232°
2026-05-04 00:53 21.20407 -157.95357 6972 ft 243 kts 232°
2026-05-04 00:54 21.19387 -157.96806 6863 ft 245 kts 233°
2026-05-04 00:54 21.18370 -157.98253 6527 ft 245 kts 232°
2026-05-04 00:54 21.17331 -157.99727 6189 ft 245 kts 232°
2026-05-04 00:54 21.16312 -158.01170 5924 ft 241 kts 232°
2026-05-04 00:55 21.15312 -158.02583 5663 ft 239 kts 232°
2026-05-04 00:55 21.14315 -158.03992 5402 ft 238 kts 232°
2026-05-04 00:55 21.13310 -158.05411 5139 ft 238 kts 232°
2026-05-04 00:55 21.12371 -158.06877 4861 ft 238 kts 247°
2026-05-04 00:56 21.12188 -158.08578 4565 ft 234 kts 288°
2026-05-04 00:56 21.13005 -158.10053 4307 ft 228 kts 323°
2026-05-04 00:56 21.14282 -158.11044 4071 ft 227 kts 329°
2026-05-04 00:56 21.15617 -158.11914 3790 ft 222 kts 346°
2026-05-04 00:57 21.17091 -158.12006 3532 ft 211 kts 20°
2026-05-04 00:57 21.18327 -158.11208 3306 ft 207 kts 47°
2026-05-04 00:57 21.19250 -158.10034 3080 ft 205 kts 54°
2026-05-04 00:57 21.20084 -158.08818 2986 ft 204 kts 55°
2026-05-04 00:58 21.20927 -158.07576 2984 ft 204 kts 55°
2026-05-04 00:58 21.21765 -158.06364 2953 ft 201 kts 54°
2026-05-04 00:58 21.22584 -158.05196 2778 ft 191 kts 54°
2026-05-04 00:58 21.23373 -158.04077 2513 ft 185 kts 54°
2026-05-04 00:59 21.24138 -158.02995 2258 ft 178 kts 54°
2026-05-04 00:59 21.24862 -158.01970 2011 ft 165 kts 54°
2026-05-04 00:59 21.25518 -158.01042 1815 ft 148 kts 54°
2026-05-04 00:59 21.26103 -158.00214 1617 ft 134 kts 54°
2026-05-04 01:00 21.26666 -157.99416 1460 ft 133 kts 54°
2026-05-04 01:00 21.27224 -157.98624 1313 ft 133 kts 54°
2026-05-04 01:00 21.27785 -157.97829 1156 ft 133 kts 54°
2026-05-04 01:00 21.28340 -157.97041 991 ft 132 kts 54°
2026-05-04 01:01 21.28897 -157.96249 831 ft 134 kts 53°
2026-05-04 01:01 21.29459 -157.95438 649 ft 133 kts 53°
2026-05-04 01:01 21.30012 -157.94658 471 ft 134 kts 51°
2026-05-04 01:01 21.30582 -157.93866 304 ft 135 kts 53°
2026-05-04 01:02 21.31138 -157.93069 143 ft 131 kts 52°
2026-05-04 01:02 21.31685 -157.92294 33 ft 120 kts 51°
2026-05-04 01:02 21.32206 -157.91573 365 ft 128 kts 51°
2026-05-04 01:02 21.32338 -157.90665 846 ft 144 kts 115°
2026-05-04 01:03 21.31456 -157.90001 1323 ft 177 kts 162°
2026-05-04 01:03 21.30208 -157.90294 1965 ft 201 kts 212°
2026-05-04 01:03 21.29233 -157.91368 2757 ft 206 kts 226°
2026-05-04 01:03 21.28279 -157.92522 3382 ft 211 kts 227°
2026-05-04 01:04 21.27266 -157.93686 3874 ft 221 kts 218°
2026-05-04 01:04 21.25816 -157.94226 4358 ft 225 kts 181°
2026-05-04 01:04 21.24215 -157.94299 4738 ft 241 kts 179°
2026-05-04 01:04 21.22508 -157.94354 4695 ft 253 kts 179°
2026-05-04 01:05 21.20688 -157.94398 4843 ft 260 kts 180°
2026-05-04 01:05 21.18917 -157.94842 4963 ft 267 kts 206°
2026-05-04 01:05 21.17430 -157.96053 4979 ft 269 kts 223°
2026-05-04 01:05 21.16219 -157.97571 4969 ft 262 kts 235°
2026-05-04 01:06 21.15274 -157.99162 4961 ft 247 kts 238°
2026-05-04 01:06 21.14364 -158.00664 4973 ft 229 kts 234°
2026-05-04 01:06 21.13467 -158.01973 5018 ft 211 kts 232°
2026-05-04 01:06 21.12584 -158.03229 4920 ft 210 kts 232°
2026-05-04 01:07 21.11706 -158.04475 4648 ft 208 kts 232°
2026-05-04 01:07 21.10922 -158.05763 4327 ft 208 kts 249°
2026-05-04 01:07 21.10832 -158.07262 4025 ft 204 kts 288°
2026-05-04 01:07 21.11520 -158.08550 3755 ft 199 kts 314°
2026-05-04 01:08 21.12500 -158.09573 3473 ft 196 kts 326°
2026-05-04 01:08 21.13602 -158.10460 3186 ft 196 kts 329°
2026-05-04 01:08 21.14726 -158.11243 2981 ft 191 kts 343°
2026-05-04 01:08 21.16010 -158.11380 2988 ft 183 kts
2026-05-04 01:09 21.17266 -158.11203 2984 ft 182 kts 14°
2026-05-04 01:09 21.18406 -158.10672 2974 ft 177 kts 40°
2026-05-04 01:09 21.19280 -158.09773 2981 ft 175 kts 50°
2026-05-04 01:09 21.20070 -158.08754 2978 ft 176 kts 53°
2026-05-04 01:10 21.20818 -158.07724 2979 ft 175 kts 54°
2026-05-04 01:10 21.21560 -158.06677 2972 ft 176 kts 54°
2026-05-04 01:10 21.22286 -158.05646 2820 ft 175 kts 54°
2026-05-04 01:10 21.23010 -158.04616 2597 ft 170 kts 54°
2026-05-04 01:11 21.23710 -158.03619 2370 ft 161 kts 54°
2026-05-04 01:11 21.24366 -158.02689 2168 ft 151 kts 54°
2026-05-04 01:11 21.24957 -158.01848 1995 ft 136 kts 54°
2026-05-04 01:11 21.25522 -158.01045 1830 ft 134 kts 55°
2026-05-04 01:12 21.26084 -158.00247 1665 ft 133 kts 55°
2026-05-04 01:12 21.26637 -157.99461 1506 ft 133 kts 55°
2026-05-04 01:12 21.27197 -157.98666 1337 ft 132 kts 54°
2026-05-04 01:12 21.27754 -157.97876 1167 ft 133 kts 54°
2026-05-04 01:13 21.28312 -157.97072 1013 ft 136 kts 54°
2026-05-04 01:13 21.28883 -157.96258 845 ft 135 kts 53°
2026-05-04 01:13 21.29462 -157.95459 673 ft 135 kts 53°
2026-05-04 01:13 21.30023 -157.94665 504 ft 132 kts 54°
2026-05-04 01:14 21.30572 -157.93866 306 ft 134 kts 52°
2026-05-04 01:14 21.31144 -157.93065 140 ft 134 kts 52°
2026-05-04 01:14 21.31692 -157.92285 24 ft 121 kts 52°
2026-05-04 01:14 21.32101 -157.91707 19 ft 71 kts 53°
2026-05-04 01:15 21.32323 -157.91423 23 ft 38 kts 38°
2026-05-04 01:15 21.32547 -157.91327 26 ft 32 kts
2026-05-04 01:15 21.32687 -157.91341 31 ft 15 kts 289°
2026-05-04 01:15 21.32691 -157.91455 31 ft 15 kts 270°
2026-05-04 01:16 21.32690 -157.91568 30 ft 15 kts 269°
2026-05-04 01:16 21.32690 -157.91693 29 ft 16 kts 271°
2026-05-04 01:16 21.32691 -157.91815 29 ft 16 kts 271°
2026-05-04 01:16 21.32757 -157.91862 32 ft 12 kts 12°
2026-05-04 01:17 21.32836 -157.91846 35 ft 10 kts
2026-05-04 01:17 21.32900 -157.91844 37 ft 7 kts 334°
2026-05-04 01:17 21.32927 -157.91885 38 ft 6 kts 287°
2026-05-04 01:17 21.32937 -157.91934 38 ft 7 kts 279°
2026-05-04 01:18 21.32942 -157.91966 39 ft 1 kts 279°
2026-05-04 01:18 21.32942 -157.91971 39 ft 0 kts 279°